Home > Weather > Makati > Past weeks

Flag for Philippines Past Weather in Makati, Philippines — Yesterday and Last 2 Weeks

Now
84 °F

Passing clouds.


Feels Like: 96 °F
Forecast: 80 / 96 °F
Wind: 1 mph from North

Location: National Airport

Current Time: Jul 27, 2016 at 4:08:26 AM

Latest Report: Jul 27, 2016 at 3:00 AM


Visibility: N/A

Pressure: 29.80 "Hg

Humidity: 84%

Dew Point: 79 °F

Location of MakatiLocation

Past Weather in Makati — Graph

°F

Makati Temperature Yesterday

Maximum temperature yesterday: 95 °F (at 2:00 PM)
Minimum temperature yesterday: 82 °F (at 1:00 AM)
Average temperature yesterday: 87 °F

High & Low Weather Summary for the Past Weeks

 TemperatureHumidityPressure
High97 °F (Jul 18, 3:00 PM)100% (Jul 12, 3:00 AM)29.89 "Hg (Jul 12, 3:00 AM)
Low75 °F (Jul 21, 6:45 PM)44% (Jul 18, 11:00 AM)29.71 "Hg (Jul 15, 3:00 PM)
Average85 °F80%29.80 "Hg
* Reported Jul 12 3:00 AM — Jul 27 3:00 AM, Makati, Weather by CustomWeather, © 2016

Note: Actual official high and low records may vary slightly from our data, if they occured in-between our weather recording intervals... More about our weather records

Advertising

Makati Weather History for the Previous 24 Hours

Scroll right to see more
 ConditionsComfort  
Time TempWeatherWind HumidityBarometerVisibility
3:00 AM
Wed, Jul 27
84 °FPassing clouds.1 mph84%29.80 "HgN/A
2:00 AM84 °FPartly cloudy.No wind84%29.80 "HgN/A
1:00 AM84 °FPassing clouds.No wind84%29.83 "HgN/A
12:00 AM84 °FPassing clouds.No wind84%29.83 "HgN/A
11:00 PM
Tue, Jul 26
86 °FPassing clouds.3 mph75%29.83 "HgN/A
10:00 PM86 °FPartly cloudy.2 mph75%29.83 "Hg6 mi
9:00 PM86 °FPartly cloudy.2 mph79%29.80 "HgN/A
8:00 PM86 °FPartly cloudy.2 mph70%29.80 "HgN/A
7:00 PM88 °FPassing clouds.5 mph62%29.77 "HgN/A
6:00 PM86 °FPartly sunny.6 mph66%29.77 "HgN/A
5:00 PM88 °FPartly sunny.7 mph75%29.74 "HgN/A
4:00 PM90 °FHot.8 mph59%29.74 "HgN/A
3:00 PM95 °FScattered clouds.7 mph47%29.71 "HgN/A
2:00 PM95 °FScattered clouds.6 mph50%29.74 "HgN/A
1:00 PM93 °FScattered clouds.7 mph56%29.74 "HgN/A
12:00 PM93 °FScattered clouds.8 mph56%29.77 "HgN/A
11:00 AM91 °FPartly sunny.6 mph63%29.80 "HgN/A
10:00 AM91 °FBroken clouds.6 mph63%29.80 "HgN/A
9:00 AM88 °FBroken clouds.6 mph79%29.80 "HgN/A
8:00 AM86 °FPartly sunny.3 mph84%29.80 "HgN/A
7:00 AM82 °FPartly sunny.2 mph100%29.80 "HgN/A
6:00 AM82 °FPartly sunny.2 mph100%29.80 "HgN/A
5:00 AM82 °FPassing clouds.No wind100%29.80 "HgN/A
4:00 AM82 °FPassing clouds.1 mph100%29.77 "HgN/A
Weather by CustomWeather, © 2016

See weather overviewHow to use our weather pages